TimeEST,TemperatureF,Dew PointF,Humidity,Sea Level PressureIn,VisibilityMPH,Wind Direction,Wind SpeedMPH,Gust SpeedMPH,PrecipitationIn,Events,Conditions,WindDirDegrees,DateUTC
12:54 AM,37.0,28.9,73,30.42,10.0,Variable,3.5,-,N/A,,Overcast,0,2013-01-28 05:54:00
1:31 AM,37.4,30.2,75,30.38,10.0,ESE,3.5,-,N/A,,Overcast,120,2013-01-28 06:31:00
1:54 AM,37.0,28.9,73,30.40,10.0,SSE,4.6,-,N/A,,Scattered Clouds,150,2013-01-28 06:54:00
2:54 AM,37.0,28.9,73,30.40,10.0,SSE,5.8,-,N/A,,Clear,150,2013-01-28 07:54:00
3:54 AM,37.0,28.9,73,30.39,10.0,Calm,Calm,-,N/A,,Partly Cloudy,0,2013-01-28 08:54:00
4:54 AM,37.0,30.0,76,30.38,10.0,South,4.6,-,N/A,,Partly Cloudy,170,2013-01-28 09:54:00
5:54 AM,36.0,30.0,79,30.40,10.0,ESE,3.5,-,N/A,,Partly Cloudy,120,2013-01-28 10:54:00
6:54 AM,34.0,30.0,85,30.41,10.0,East,3.5,-,N/A,,Mostly Cloudy,90,2013-01-28 11:54:00
7:54 AM,33.1,28.9,85,30.42,10.0,Calm,Calm,-,N/A,,Overcast,0,2013-01-28 12:54:00
8:54 AM,36.0,30.0,79,30.42,10.0,North,3.5,-,N/A,,Mostly Cloudy,360,2013-01-28 13:54:00
9:54 AM,39.9,33.1,77,30.40,9.0,Calm,Calm,-,N/A,,Clear,0,2013-01-28 14:54:00
10:07 AM,41.0,33.8,76,30.38,10.0,Calm,Calm,-,N/A,,Scattered Clouds,0,2013-01-28 15:07:00
10:16 AM,42.8,35.6,76,30.38,10.0,Calm,Calm,-,N/A,,Mostly Cloudy,0,2013-01-28 15:16:00
10:54 AM,46.0,39.0,76,30.39,10.0,SSE,3.5,-,N/A,,Overcast,150,2013-01-28 15:54:00
11:20 AM,48.2,41.0,76,30.37,10.0,Variable,3.5,-,N/A,,Mostly Cloudy,0,2013-01-28 16:20:00
11:54 AM,53.6,44.6,72,30.35,10.0,ESE,3.5,-,N/A,,Mostly Cloudy,110,2013-01-28 16:54:00
12:09 PM,55.4,48.2,77,30.34,10.0,SW,6.9,16.1,N/A,,Scattered Clouds,220,2013-01-28 17:09:00
12:54 PM,59.0,48.0,67,30.29,10.0,SSW,10.4,-,N/A,,Scattered Clouds,200,2013-01-28 17:54:00
1:54 PM,63.0,46.0,54,30.23,10.0,SSW,16.1,21.9,N/A,,Clear,200,2013-01-28 18:54:00
2:54 PM,64.0,46.0,52,30.20,10.0,SSW,13.8,23.0,N/A,,Clear,210,2013-01-28 19:54:00
3:54 PM,64.0,46.0,52,30.21,10.0,SSW,13.8,20.7,N/A,,Mostly Cloudy,210,2013-01-28 20:54:00
4:54 PM,61.0,46.9,60,30.21,10.0,South,11.5,17.3,N/A,,Clear,180,2013-01-28 21:54:00
5:54 PM,57.0,46.9,69,30.23,10.0,SSW,8.1,-,N/A,,Clear,200,2013-01-28 22:54:00
6:54 PM,53.1,46.0,77,30.25,10.0,South,3.5,-,N/A,,Clear,190,2013-01-28 23:54:00
7:54 PM,51.1,45.0,80,30.25,10.0,Calm,Calm,-,N/A,,Mostly Cloudy,0,2013-01-29 00:54:00
8:54 PM,48.9,44.1,83,30.25,10.0,Calm,Calm,-,N/A,,Clear,0,2013-01-29 01:54:00
9:54 PM,45.0,43.0,93,30.25,10.0,Calm,Calm,-,N/A,,Partly Cloudy,0,2013-01-29 02:54:00
10:54 PM,44.1,42.1,93,30.25,10.0,Calm,Calm,-,N/A,,Mostly Cloudy,0,2013-01-29 03:54:00
11:54 PM,43.0,41.0,93,30.24,9.0,Calm,Calm,-,N/A,,Clear,0,2013-01-29 04:54:00